Tracking 23732 objects as of 28-Sep-2021
HD Live streaming from Space Station
objects crossing your sky now

DMSP 5D-2 F13 DEB

Track DMSP 5D-2 F13 DEB now!
10-day predictions


NORAD ID: 40472
Int'l Code: 1995-015BQ
Perigee: 566.0 km
Apogee: 740.1 km
Inclination: 98.7 °
Period: 97.6 minutes
Semi major axis: 7024 km
RCS: Unknown
Launch date: March 24, 1995
Source: United States (US)
Launch site: AIR FORCE WESTERN TEST RANGE (AFWTR)

Note: This is SATELLITE DEBRIS
aabbcc
Your satellite tracking list
Your tracking list is empty




NASA's NSSDC Master Catalog

Two Line Element Set (TLE):
1 40472U 95015BQ  21270.74918194  .00006165  00000-0  82185-3 0  9997
2 40472  98.7363  95.3881 0123922  94.2302 267.3077 14.74764555350444
Source of the keplerian elements: AFSPC